[[{"header":{"parameterUnit":"m.s-1","parameterCategory":1,"la1":30.2991,"la2":30.254,"lo1":-89.0895,"lo2":-89.0444,"dy":0.0017,"dx":0.0017,"nx":28,"ny":28,"refTime":"2025-07-27T21:00:00:Z","depth":0,"parameterNumber":2,"parameterNumberName":"U-component_of_WINDS"},"data":[0,0,0,0,0,0,0,0,0,0,0,0,0,0,0,0,0,0,0,0,0,0,0,0,0,0,0,0,0,0,0,0,0,0,0,0,0,0,0,0,0,0,0,0,0,0,0,0,0,0,0,0,0,0,0,0,0,0,2.3638,2.3637,0,2.3566,2.3565,2.3564,2.3429,2.3427,2.3424,2.3421,2.3346,2.3346,2.3347,0,0,0,0,0,0,0,0,0,0,0,0,0,2.3659,2.3659,2.3638,2.3637,2.3636,2.3566,2.3565,2.3564,2.343,2.3426,2.3423,2.342,2.3346,2.3346,2.3347,0,0,0,0,0,0,0,0,0,0,0,0,0,2.3625,2.366,2.3638,2.3561,2.3553,2.3566,2.3565,2.3564,2.343,2.3426,2.3422,2.3419,2.3345,2.3346,2.3347,2.3429,0,0,2.3349,2.3349,0,0,0,0,0,0,0,0,2.3627,2.3624,2.3573,2.3566,2.3557,2.3502,2.3545,2.3518,2.3431,2.3477,2.3421,2.3417,2.3401,2.3397,2.3392,2.3425,2.3422,2.3349,2.3349,2.3349,2.3349,0,0,0,0,0,0,0,2.363,2.3627,2.3609,2.3572,2.3563,2.353,2.352,2.3539,2.3462,2.3473,2.3463,2.3456,2.3396,2.3392,2.3389,2.3421,2.3349,2.3349,2.335,2.335,2.3522,2.3526,0,0,0,0,0,0,2.3643,2.3629,2.3611,2.3607,2.3583,2.3532,2.3522,2.3524,2.3461,2.3448,2.3459,2.345,2.3392,2.3388,2.3386,2.3481,2.3349,2.335,2.335,2.3518,2.3523,2.3528,0,0,0,0,0,0,2.3644,2.3643,2.3614,2.3616,2.3609,2.3536,2.354,2.3525,2.352,2.3451,2.3437,2.3469,2.3389,2.3385,2.342,2.3476,2.335,2.3351,2.3513,2.352,2.3526,2.367,0,0,0,0,0,0,2.3646,2.3644,2.3674,2.3617,2.361,2.3651,2.3543,2.3526,2.3522,2.3509,2.3456,2.3444,2.3386,2.342,2.3421,2.3475,2.3351,2.3508,2.3516,2.3524,2.366,2.3681,2.3698,0,0,0,0,0,2.3647,2.3717,2.3677,2.3675,2.3646,2.3654,2.365,2.3582,2.3527,2.3557,2.3513,2.3446,2.347,2.3425,2.3425,2.348,2.3504,2.3514,2.3523,2.3651,2.3676,2.3698,0,0,0,0,0,0,2.3781,2.3708,2.3662,2.3716,2.3693,2.3631,2.3667,2.361,2.3601,2.3589,2.3504,2.3493,2.3541,2.3513,2.3464,2.3558,2.3476,2.3486,2.3574,2.3597,2.3616,2.3622,2.3352,0,0,0,0,0,2.3817,2.3829,2.3764,2.3818,2.3809,2.3741,2.3741,2.3691,2.3663,2.3652,2.361,2.3586,2.3588,2.3591,2.3588,2.3655,2.3643,2.3693,2.3712,2.3728,2.3738,2.3775,2.3797,2.3559,2.3559,2.3559,0,0,2.3891,2.3852,2.3865,2.3844,2.382,2.3836,2.3733,2.3752,2.3764,2.3654,2.3686,2.3656,2.3622,2.3675,2.3696,2.3653,2.3801,2.374,2.3754,2.3755,2.3787,2.381,2.383,2.3565,2.3564,2.3563,0,0,2.4034,2.4006,2.4049,2.4027,2.3993,2.3947,2.3958,2.3906,2.3882,2.3913,2.3833,2.3845,2.3849,2.383,2.3821,2.3961,2.39,2.3963,2.4063,2.4099,2.4118,2.4135,2.4187,2.4207,2.3972,2.3973,2.3973,0,2.4131,2.4151,2.4078,2.4104,2.4098,2.4002,2.4046,2.4029,2.3995,2.3994,2.3947,2.3953,2.3924,2.3972,2.4007,2.4002,2.4013,2.3968,2.4122,2.4137,2.4151,2.4201,2.4221,2.3981,2.398,2.3979,2.3978,0,2.4272,2.4288,2.4327,2.43,2.4298,2.4333,2.4266,2.4273,2.4224,2.4185,2.4219,2.4181,2.4171,2.4178,2.4129,2.4221,2.4196,2.4137,2.4054,2.4183,2.4229,2.4247,2.3993,2.399,2.3987,2.3985,0,0,2.4497,2.4431,2.4447,2.4435,2.4391,2.4402,2.4433,2.4425,2.4434,2.4415,2.4441,2.4449,2.4395,2.4385,2.4333,2.4365,2.4483,2.4302,2.43,2.4339,2.4585,2.4632,2.4655,2.4442,2.4445,2.4448,2.4589,0,2.4632,2.4683,2.462,2.4685,2.47,2.4611,2.4638,2.4616,2.458,2.4588,2.4547,2.4556,2.4482,2.4476,2.4504,2.4463,2.4532,2.4452,2.4466,2.4468,2.448,2.4678,2.4726,2.4861,2.4606,2.4609,2.4611,0,2.4797,2.4788,2.4855,2.4811,2.4815,2.4841,2.483,2.4838,2.4811,2.4783,2.4775,2.4714,2.4743,2.4662,2.4703,2.465,2.4652,2.4633,2.4637,2.4637,2.4548,2.4686,2.4902,2.4924,2.4637,2.4635,2.4633,0,2.4958,2.4962,2.5004,2.4996,2.4944,2.4965,2.4945,2.4914,2.4914,2.4904,2.4904,2.4898,2.4895,2.4892,2.4833,2.4779,2.4882,2.4795,2.4861,2.4863,2.4887,2.4887,2.511,2.4886,2.4886,2.4885,2.4885,0,2.5116,2.5162,2.5076,2.5102,2.5151,2.5078,2.5129,2.5099,2.5073,2.5092,2.5013,2.5033,2.4952,2.4964,2.4917,2.496,2.4958,2.4937,2.4925,2.4945,2.4949,2.4947,2.4937,2.489,2.4889,2.4888,2.4887,0,2.5305,2.5248,2.5289,2.5237,2.5226,2.5265,2.5221,2.5243,2.5203,2.5229,2.5231,2.5169,2.5179,2.5119,2.5117,2.5086,2.5152,2.5122,2.5162,2.5154,2.5224,2.5219,2.5455,2.5484,2.524,2.5243,2.5245,0,2.5411,2.5444,2.5397,2.5405,2.5389,2.5402,2.5403,2.5334,2.5338,2.5312,2.5338,2.5342,2.5341,2.5362,2.5317,2.5316,2.5287,2.537,2.5286,2.5308,2.5292,2.5291,2.5296,2.5388,2.5391,2.5393,2.5395,0,2.5606,2.5577,2.5581,2.5578,2.5581,2.5574,2.5562,2.5573,2.5498,2.5507,2.5517,2.5517,2.5518,2.5523,2.5514,2.5493,2.5434,2.5422,2.5438,2.546,2.5484,2.5475,2.5212,2.5417,2.5415,2.5413,2.5412,2.5411,2.5757,2.5784,2.5757,2.5765,2.5749,2.5741,2.5761,2.5724,2.5732,2.5727,2.5686,2.5705,2.568,2.5662,2.5647,2.5662,2.5622,2.5644,2.565,2.5657,2.5671,2.548,2.5659,2.5658,2.5658,2.5657,2.5657,0,2.5951,2.593,2.5938,2.5925,2.5933,2.5876,2.586,2.587,2.5889,2.587,2.5873,2.5886,2.5892,2.5849,2.585,2.587,2.5843,2.5873,2.5872,2.5869,2.5705,2.5692,2.5895,2.5895,2.5895,2.5895,2.5895,2.5895,2.6053,2.6096,2.6065,2.6101,2.6078,2.6097,2.6094,2.6086,2.6072,2.6091,2.6097,2.6068,2.6041,2.604,2.6044,2.6031,2.6036,2.6076,2.6055,2.5903,2.588,2.5857,2.5846,2.6077,2.6078,2.6217,2.6219,2.622]},{"header":{"parameterUnit":"m.s-1","parameterCategory":1,"la1":30.2991,"la2":30.254,"lo1":-89.0895,"lo2":-89.0444,"dy":0.0017,"dx":0.0017,"nx":28,"ny":28,"refTime":"2025-07-27T21:00:00:Z","depth":0,"parameterNumber":3,"parameterNumberName":"V-component_of_WINDS"},"data":[0,0,0,0,0,0,0,0,0,0,0,0,0,0,0,0,0,0,0,0,0,0,0,0,0,0,0,0,0,0,0,0,0,0,0,0,0,0,0,0,0,0,0,0,0,0,0,0,0,0,0,0,0,0,0,0,0,0,-0.9222,-0.9222,0,-0.9227,-0.9227,-0.9227,-0.924,-0.924,-0.9241,-0.9241,-0.9244,-0.9244,-0.9244,0,0,0,0,0,0,0,0,0,0,0,0,0,-0.9222,-0.9222,-0.9222,-0.9222,-0.9222,-0.9227,-0.9227,-0.9227,-0.924,-0.924,-0.9241,-0.9241,-0.9244,-0.9244,-0.9244,0,0,0,0,0,0,0,0,0,0,0,0,0,-0.9224,-0.9222,-0.9222,-0.9229,-0.923,-0.9227,-0.9227,-0.9227,-0.924,-0.924,-0.9241,-0.9241,-0.9244,-0.9244,-0.9244,-0.9234,0,0,-0.9243,-0.9243,0,0,0,0,0,0,0,0,-0.9224,-0.9224,-0.9228,-0.9228,-0.9229,-0.9233,-0.9228,-0.9229,-0.924,-0.9236,-0.9241,-0.9241,-0.924,-0.924,-0.924,-0.9234,-0.9234,-0.9243,-0.9243,-0.9243,-0.9243,0,0,0,0,0,0,0,-0.9224,-0.9224,-0.9224,-0.9228,-0.9229,-0.9232,-0.9232,-0.9228,-0.9235,-0.9236,-0.9237,-0.9238,-0.9241,-0.924,-0.924,-0.9234,-0.9243,-0.9243,-0.9243,-0.9243,-0.922,-0.922,0,0,0,0,0,0,-0.9223,-0.9224,-0.9223,-0.9224,-0.9228,-0.9231,-0.9232,-0.9231,-0.9236,-0.9237,-0.9237,-0.9238,-0.9241,-0.9241,-0.9241,-0.9229,-0.9243,-0.9243,-0.9242,-0.9221,-0.922,-0.922,0,0,0,0,0,0,-0.9223,-0.9223,-0.9223,-0.9224,-0.9224,-0.9231,-0.923,-0.9231,-0.9231,-0.9236,-0.9238,-0.9236,-0.9241,-0.9241,-0.9236,-0.9229,-0.9242,-0.9242,-0.9221,-0.922,-0.922,-0.9206,0,0,0,0,0,0,-0.9223,-0.9222,-0.9219,-0.9224,-0.9224,-0.9218,-0.923,-0.9231,-0.9231,-0.9232,-0.9235,-0.9236,-0.9241,-0.9236,-0.9235,-0.9229,-0.9242,-0.9222,-0.9221,-0.922,-0.9207,-0.9205,-0.9203,0,0,0,0,0,-0.9223,-0.9214,-0.9219,-0.9219,-0.922,-0.9218,-0.9218,-0.9225,-0.923,-0.9227,-0.923,-0.9236,-0.923,-0.9235,-0.9235,-0.9228,-0.9222,-0.9221,-0.922,-0.9208,-0.9205,-0.9203,0,0,0,0,0,0,-0.9208,-0.9215,-0.922,-0.9213,-0.9215,-0.922,-0.9216,-0.9222,-0.9221,-0.9223,-0.923,-0.9231,-0.9224,-0.9226,-0.9231,-0.9219,-0.9227,-0.9226,-0.9218,-0.9216,-0.9214,-0.9214,-0.9242,0,0,0,0,0,-0.9204,-0.9202,-0.9209,-0.9202,-0.9203,-0.9209,-0.9209,-0.9213,-0.9215,-0.9216,-0.9219,-0.922,-0.9219,-0.9217,-0.9216,-0.9208,-0.9208,-0.9203,-0.9201,-0.92,-0.9198,-0.9194,-0.9192,-0.9216,-0.9216,-0.9216,0,0,-0.9196,-0.92,-0.9198,-0.9199,-0.9201,-0.9199,-0.921,-0.9207,-0.9205,-0.9215,-0.9211,-0.9213,-0.9215,-0.9208,-0.9205,-0.9209,-0.9192,-0.9198,-0.9197,-0.9197,-0.9193,-0.9191,-0.9188,-0.9216,-0.9216,-0.9216,0,0,-0.9179,-0.9182,-0.9177,-0.9179,-0.9182,-0.9187,-0.9186,-0.919,-0.9192,-0.9188,-0.9196,-0.9194,-0.9191,-0.9192,-0.9192,-0.9177,-0.9182,-0.9176,-0.9166,-0.9162,-0.916,-0.9158,-0.9153,-0.9151,-0.9175,-0.9175,-0.9175,0,-0.9169,-0.9166,-0.9174,-0.9171,-0.9171,-0.9181,-0.9176,-0.9177,-0.9179,-0.9179,-0.9184,-0.9181,-0.9183,-0.9176,-0.9173,-0.9173,-0.9171,-0.9176,-0.9159,-0.9158,-0.9156,-0.9151,-0.9149,-0.9174,-0.9174,-0.9174,-0.9174,0,-0.9152,-0.9151,-0.9146,-0.9149,-0.9149,-0.9144,-0.9151,-0.915,-0.9155,-0.9159,-0.9154,-0.9157,-0.9157,-0.9156,-0.916,-0.915,-0.9152,-0.9158,-0.9166,-0.9153,-0.9148,-0.9147,-0.9173,-0.9173,-0.9174,-0.9174,0,0,-0.9126,-0.9134,-0.9132,-0.9134,-0.9138,-0.9137,-0.9133,-0.9134,-0.9132,-0.9134,-0.9131,-0.9128,-0.9134,-0.9134,-0.9139,-0.9135,-0.9123,-0.9141,-0.9142,-0.9138,-0.9112,-0.9107,-0.9105,-0.9127,-0.9127,-0.9126,-0.9112,0,-0.9111,-0.9106,-0.9113,-0.9106,-0.9104,-0.9114,-0.911,-0.9113,-0.9116,-0.9115,-0.9119,-0.9117,-0.9125,-0.9125,-0.9122,-0.9125,-0.9118,-0.9126,-0.9124,-0.9124,-0.9123,-0.9103,-0.9098,-0.9084,-0.911,-0.911,-0.9109,0,-0.9092,-0.9094,-0.9086,-0.9092,-0.9091,-0.9088,-0.9089,-0.9088,-0.9091,-0.9094,-0.9095,-0.9101,-0.9097,-0.9105,-0.91,-0.9106,-0.9105,-0.9107,-0.9107,-0.9106,-0.9116,-0.9102,-0.9079,-0.9077,-0.9107,-0.9107,-0.9107,0,-0.9074,-0.9074,-0.907,-0.9071,-0.9077,-0.9075,-0.9077,-0.908,-0.908,-0.9081,-0.9081,-0.9081,-0.9081,-0.9081,-0.9087,-0.9092,-0.9081,-0.909,-0.9083,-0.9083,-0.908,-0.908,-0.9057,-0.908,-0.908,-0.908,-0.908,0,-0.9056,-0.9051,-0.9062,-0.9059,-0.9054,-0.9062,-0.9057,-0.906,-0.9063,-0.9061,-0.9069,-0.9067,-0.9075,-0.9074,-0.9078,-0.9073,-0.9073,-0.9075,-0.9076,-0.9074,-0.9074,-0.9074,-0.9075,-0.9079,-0.908,-0.908,-0.908,0,-0.9035,-0.9042,-0.9038,-0.9044,-0.9046,-0.9042,-0.9047,-0.9044,-0.9049,-0.9046,-0.9046,-0.9053,-0.9052,-0.9058,-0.9057,-0.906,-0.9053,-0.9056,-0.9052,-0.9053,-0.9046,-0.9047,-0.9022,-0.9019,-0.9044,-0.9044,-0.9043,0,-0.9023,-0.9019,-0.9026,-0.9025,-0.9027,-0.9026,-0.9027,-0.9035,-0.9034,-0.9038,-0.9035,-0.9034,-0.9035,-0.9032,-0.9037,-0.9037,-0.9039,-0.9031,-0.9039,-0.9038,-0.9039,-0.9039,-0.9039,-0.9029,-0.9029,-0.9028,-0.9028,0,-0.9001,-0.9004,-0.9005,-0.9006,-0.9006,-0.9008,-0.9009,-0.9009,-0.9017,-0.9016,-0.9016,-0.9016,-0.9016,-0.9016,-0.9016,-0.9018,-0.9025,-0.9026,-0.9024,-0.9022,-0.902,-0.9021,-0.9047,-0.9026,-0.9026,-0.9026,-0.9026,-0.9027,-0.8984,-0.8981,-0.8985,-0.8985,-0.8988,-0.899,-0.8988,-0.8992,-0.8992,-0.8993,-0.8998,-0.8996,-0.8999,-0.9001,-0.9003,-0.9001,-0.9005,-0.9003,-0.9002,-0.9002,-0.9001,-0.902,-0.9002,-0.9002,-0.9002,-0.9002,-0.9002,0,-0.8962,-0.8965,-0.8965,-0.8968,-0.8968,-0.8975,-0.8977,-0.8977,-0.8975,-0.8978,-0.8978,-0.8977,-0.8977,-0.8982,-0.8982,-0.898,-0.8983,-0.898,-0.898,-0.898,-0.8997,-0.8998,-0.8978,-0.8978,-0.8978,-0.8978,-0.8978,-0.8978,-0.8951,-0.8947,-0.8951,-0.8949,-0.8952,-0.8951,-0.8952,-0.8954,-0.8956,-0.8955,-0.8955,-0.8958,-0.8962,-0.8962,-0.8962,-0.8964,-0.8963,-0.8959,-0.8962,-0.8977,-0.8979,-0.8981,-0.8983,-0.8959,-0.8959,-0.8945,-0.8945,-0.8945]}]]